Hourly Weather El-Dzhem

Today, 17 January, Sunday

Time Temperature Precipitation Wind Pressure Humidity
00:00 +7°C° 0 mm 8 mps 756 mmHg 71%
01:00 +6°C° 0 mm 7 mps 756 mmHg 70%
02:00 +6°C° 0 mm 7 mps 757 mmHg 73%
03:00 +7°C° 0 mm 6 mps 757 mmHg 77%
04:00 +6°C° 0 mm 5 mps 757 mmHg 81%
05:00 +6°C° 0 mm 5 mps 757 mmHg 80%
06:00 +5°C° 0 mm 6 mps 757 mmHg 78%
07:00 +5°C° 0 mm 6 mps 758 mmHg 77%
08:00 +7°C° 0 mm 6 mps 758 mmHg 70%
09:00 +9°C° 0 mm 7 mps 758 mmHg 64%
10:00 +10°C° 0 mm 8 mps 758 mmHg 57%
11:00 +11°C° 0 mm 8 mps 758 mmHg 56%
12:00 +12°C° 0 mm 7 mps 758 mmHg 55%
13:00 +14°C° 0 mm 7 mps 757 mmHg 54%
14:00 +14°C° 0 mm 7 mps 757 mmHg 53%
15:00 +14°C° 0 mm 6 mps 757 mmHg 52%
16:00 +15°C° 0 mm 5 mps 756 mmHg 52%
17:00 +14°C° 0 mm 5 mps 756 mmHg 54%
18:00 +12°C° 0 mm 4 mps 756 mmHg 57%
19:00 +11°C° 0 mm 3 mps 756 mmHg 59%
20:00 +11°C° 0 mm 3 mps 756 mmHg 59%
21:00 +11°C° 0 mm 4 mps 756 mmHg 59%
22:00 +10°C° 0 mm 4 mps 756 mmHg 59%
23:00 +10°C° 0 mm 4 mps 756 mmHg 60%

Tomorrow, 18 January, Monday

Time Temperature Precipitation Wind Pressure Humidity
00:00 +10°C° 0 mm 4 mps 756 mmHg 60%
01:00 +10°C° 0 mm 4 mps 756 mmHg 60%
02:00 +8°C° 0 mm 5 mps 756 mmHg 60%
03:00 +8°C° 0 mm 6 mps 756 mmHg 59%
04:00 +8°C° 0 mm 6 mps 755 mmHg 58%
05:00 +8°C° 0 mm 6 mps 755 mmHg 62%
06:00 +8°C° 0 mm 6 mps 756 mmHg 65%
07:00 +8°C° 0 mm 6 mps 756 mmHg 69%
08:00 +9°C° 0 mm 7 mps 756 mmHg 65%
09:00 +10°C° 0 mm 8 mps 757 mmHg 62%
10:00 +11°C° 0 mm 10 mps 757 mmHg 58%
11:00 +12°C° 0 mm 10 mps 757 mmHg 54%
12:00 +13°C° 0 mm 9 mps 757 mmHg 50%
13:00 +13°C° 0 mm 9 mps 758 mmHg 46%
14:00 +13°C° 0 mm 9 mps 758 mmHg 47%
15:00 +13°C° 0 mm 8 mps 758 mmHg 47%
16:00 +13°C° 0 mm 8 mps 758 mmHg 48%
17:00 +12°C° 0 mm 7 mps 758 mmHg 53%
18:00 +11°C° 0 mm 6 mps 759 mmHg 57%
19:00 +10°C° 0 mm 5 mps 759 mmHg 61%
20:00 +10°C° 0 mm 4 mps 760 mmHg 64%
21:00 +10°C° 0 mm 4 mps 760 mmHg 67%
22:00 +8°C° 0 mm 4 mps 761 mmHg 69%
23:00 +8°C° 0 mm 4 mps 761 mmHg 72%

Day after tomorrow, 19 January, Tuesday

Time Temperature Precipitation Wind Pressure Humidity
00:00 +7°C° 0 mm 4 mps 761 mmHg 74%
01:00 +7°C° 0 mm 4 mps 761 mmHg 77%
02:00 +7°C° 0 mm 4 mps 761 mmHg 77%
03:00 +7°C° 0 mm 3 mps 761 mmHg 78%
04:00 +7°C° 0 mm 3 mps 761 mmHg 78%
05:00 +7°C° 0 mm 3 mps 761 mmHg 78%
06:00 +7°C° 0 mm 3 mps 761 mmHg 78%
07:00 +5°C° 0 mm 3 mps 761 mmHg 78%
08:00 +8°C° 0 mm 3 mps 762 mmHg 72%
09:00 +9°C° 0 mm 2 mps 762 mmHg 66%
10:00 +12°C° 0 mm 2 mps 762 mmHg 59%
11:00 +12°C° 0 mm 2 mps 762 mmHg 54%
12:00 +13°C° 0 mm 1 mps 762 mmHg 49%
13:00 +14°C° 0 mm 1 mps 761 mmHg 45%
14:00 +15°C° 0 mm 1 mps 761 mmHg 42%
15:00 +15°C° 0 mm 2 mps 761 mmHg 40%
16:00 +14°C° 0 mm 3 mps 760 mmHg 38%
17:00 +13°C° 0 mm 3 mps 761 mmHg 45%
18:00 +12°C° 0 mm 4 mps 761 mmHg 51%
19:00 +10°C° 0 mm 5 mps 761 mmHg 58%
20:00 +9°C° 0 mm 5 mps 761 mmHg 59%
21:00 +9°C° 0 mm 5 mps 761 mmHg 60%
22:00 +9°C° 0 mm 5 mps 761 mmHg 62%
23:00 +9°C° 0 mm 5 mps 761 mmHg 63%

20 January, Wednesday

Time Temperature Precipitation Wind Pressure Humidity
00:00 +8°C° 0 mm 5 mps 761 mmHg 65%
01:00 +8°C° 0 mm 6 mps 761 mmHg 66%
02:00 +8°C° 0 mm 6 mps 760 mmHg 66%
03:00 +8°C° 0 mm 6 mps 760 mmHg 66%
04:00 +8°C° 0 mm 6 mps 760 mmHg 66%
05:00 +8°C° 0 mm 6 mps 760 mmHg 63%
06:00 +8°C° 0 mm 6 mps 760 mmHg 61%
07:00 +6°C° 0 mm 7 mps 760 mmHg 59%
08:00 +9°C° 0 mm 7 mps 759 mmHg 53%
09:00 +10°C° 0 mm 8 mps 759 mmHg 48%
10:00 +12°C° 0 mm 9 mps 759 mmHg 42%
11:00 +13°C° 0 mm 9 mps 759 mmHg 39%
12:00 +15°C° 0 mm 9 mps 758 mmHg 35%
13:00 +16°C° 0 mm 10 mps 758 mmHg 32%
14:00 +16°C° 0 mm 9 mps 757 mmHg 32%
15:00 +16°C° 0 mm 9 mps 757 mmHg 32%
16:00 +16°C° 0 mm 9 mps 756 mmHg 31%
17:00 +15°C° 0 mm 8 mps 756 mmHg 34%
18:00 +13°C° 0 mm 8 mps 756 mmHg 37%
19:00 +11°C° 0 mm 7 mps 756 mmHg 40%
20:00 +11°C° 0 mm 7 mps 757 mmHg 40%
21:00 +11°C° 0 mm 7 mps 757 mmHg 41%
22:00 +11°C° 0 mm 7 mps 757 mmHg 42%
23:00 +10°C° 0 mm 7 mps 756 mmHg 43%

21 January, Thursday

Time Temperature Precipitation Wind Pressure Humidity
00:00 +10°C° 0 mm 7 mps 756 mmHg 44%
01:00 +10°C° 0 mm 8 mps 756 mmHg 45%
02:00 +10°C° 0 mm 8 mps 756 mmHg 45%
03:00 +9°C° 0 mm 8 mps 755 mmHg 46%
04:00 +9°C° 0 mm 8 mps 755 mmHg 46%
05:00 +9°C° 0 mm 8 mps 755 mmHg 47%
06:00 +9°C° 0 mm 8 mps 755 mmHg 47%
07:00 +8°C° 0 mm 7 mps 755 mmHg 48%
08:00 +10°C° 0 mm 8 mps 755 mmHg 44%
09:00 +11°C° 0 mm 9 mps 755 mmHg 39%
10:00 +13°C° 0 mm 9 mps 756 mmHg 35%
11:00 +16°C° 0 mm 8 mps 755 mmHg 32%
12:00 +17°C° 0 mm 8 mps 755 mmHg 28%
13:00 +20°C° 0 mm 7 mps 755 mmHg 24%
14:00 +20°C° 0 mm 6 mps 755 mmHg 24%
15:00 +20°C° 0 mm 5 mps 755 mmHg 24%
16:00 +20°C° 0 mm 4 mps 755 mmHg 23%
17:00 +18°C° 0 mm 3 mps 755 mmHg 28%
18:00 +17°C° 0 mm 3 mps 755 mmHg 32%
19:00 +14°C° 0 mm 3 mps 755 mmHg 37%
20:00 +13°C° 0 mm 3 mps 755 mmHg 38%
21:00 +12°C° 0 mm 3 mps 756 mmHg 39%
22:00 +12°C° 0 mm 3 mps 756 mmHg 41%
23:00 +11°C° 0 mm 3 mps 756 mmHg 42%

22 January, Friday

Time Temperature Precipitation Wind Pressure Humidity
00:00 +11°C° 0 mm 3 mps 755 mmHg 43%
01:00 +11°C° 0 mm 3 mps 755 mmHg 44%
02:00 +10°C° 0 mm 3 mps 755 mmHg 45%
03:00 +10°C° 0 mm 3 mps 755 mmHg 47%
04:00 +10°C° 0 mm 3 mps 754 mmHg 48%
05:00 +10°C° 0 mm 3 mps 754 mmHg 48%
06:00 +10°C° 0 mm 4 mps 754 mmHg 47%
07:00 +10°C° 0 mm 4 mps 754 mmHg 47%
08:00 +10°C° 0 mm 5 mps 754 mmHg 45%
09:00 +13°C° 0 mm 5 mps 754 mmHg 42%
10:00 +14°C° 0 mm 6 mps 754 mmHg 40%
11:00 +16°C° 0 mm 7 mps 753 mmHg 36%
12:00 +18°C° 0 mm 7 mps 753 mmHg 33%
13:00 +21°C° 0 mm 7 mps 752 mmHg 29%
14:00 +21°C° 0 mm 6 mps 752 mmHg 30%
15:00 +21°C° 0 mm 5 mps 752 mmHg 30%
16:00 +21°C° 0 mm 4 mps 751 mmHg 31%
17:00 +20°C° 0 mm 5 mps 752 mmHg 36%
18:00 +17°C° 0 mm 5 mps 752 mmHg 40%
19:00 +16°C° 0 mm 6 mps 752 mmHg 45%
20:00 +15°C° 0 mm 6 mps 752 mmHg 43%
21:00 +14°C° 0 mm 7 mps 753 mmHg 41%
22:00 +12°C° 0 mm 8 mps 753 mmHg 39%
23:00 +12°C° 0 mm 7 mps 753 mmHg 40%
Show more

We Need Your Consent

Meteoprog and our Service Providers may store and access personal data such as cookies, device identifiers or other similar technologies on your device and process such data to personalise content and ads, as well as provide social media features and to analyse the traffic.

  • Store and/or access information on your device

    Cookies, device identifiers or other information can be stored or accessed on your device for the purposes indicated above.

  • Personalised ads and content, ad and content measurement, audience insights, and products development

    Ads and content can be personalised based on a profile. More data can be added to better personalise ads and content. Ad and content performance can be measured. Insights about the audience who saw the ads and content can be derived. Such data can be used to develop or improve user’s experience, systems and software.

By clicking ‘I Agree’ you will allow the use of indicated cookies, device identifiers, web beacons or other similar technologies. Your settings can be changed in the browser on your device.

For certain purposes, legitimate interests may be relied on, rather than consent. You can read more about this in our Privacy and Cookie Policy.